Theta_e
332 338 339 337 339 341 344 348 356 358 364 370 373 372 373 374 374 361 359 363 355 348 346 349 365 357 354 351 352 351 351 344 343
327 335 339 338 339 339 341 348 355 359 363 369 372 370 375 373 372 371 361 367 367 355 360 348 353 356 353 352 350 351 350 343 345
327 331 337 339 339 340 344 345 352 359 363 369 371 371 372 370 371 372 372 371 370 365 363 357 359 354 352 351 351 350 350 347 348
327 329 335 339 340 341 345 345 347 353 360 366 368 369 370 370 369 368 371 367 368 367 366 363 358 356 355 351 349 349 351 349 347
328 329 331 336 340 341 343 347 346 349 354 356 364 367 371 370 371 368 367 367 368 368 364 363 359 357 355 350 346 343 342 345 343
327 329 330 332 338 341 346 349 352 351 354 352 357 364 365 368 369 368 366 368 369 367 364 356 356 356 351 349 344 342 348 348 345
327 328 334 337 336 340 347 351 355 357 355 354 356 358 360 366 369 369 367 369 369 368 363 358 356 355 353 349 347 345 346 346 344
326 327 330 338 338 339 352 354 358 359 360 361 359 362 363 366 371 371 371 368 368 368 361 359 356 354 352 349 342 339 343 344 343
325 326 327 335 341 343 351 355 359 361 361 362 363 366 365 369 372 370 370 368 367 365 361 355 354 352 348 345 334 329 332 340 341
326 327 331 329 341 346 354 354 360 360 364 364 365 367 367 370 372 370 369 367 365 362 357 353 350 348 346 338 341 326 329 334 341
329 329 331 332 339 344 350 352 354 361 359 365 367 367 368 370 372 370 367 362 361 358 354 353 349 347 344 344 346 326 325 330 340
330 333 335 334 339 344 351 354 360 364 362 361 363 363 367 368 368 368 365 359 357 354 352 350 347 345 344 343 349 324 323 329 339
327 332 334 336 339 344 348 356 355 360 361 362 362 364 364 368 369 366 360 358 357 355 351 348 346 344 344 336 347 324 319 326 339
330 334 336 344 347 345 358 359 359 360 359 357 360 359 360 363 363 364 361 355 356 351 345 345 344 344 343 343 343 342 318 317 339
336 337 339 343 344 348 353 360 361 360 359 364 365 364 363 363 363 358 356 355 353 346 346 342 342 340 340 348 350 328 317 315 316
339 341 343 345 348 353 352 359 362 359 367 368 365 362 360 359 358 355 355 351 344 339 343 340 338 339 345 344 348 346 315 314 314
340 342 344 346 347 349 351 361 362 362 363 362 362 357 352 350 347 348 348 343 342 340 340 340 343 342 341 343 345 340 337 333 322
338 340 341 343 344 346 348 352 353 356 357 358 353 349 345 344 342 344 338 328 334 343 329 326 341 341 341 337 334 332 323 321 323
338 337 339 340 344 347 349 351 351 354 355 354 350 347 345 344 341 341 341 336 328 301 302 299 300 303 318 322 313 303 298 299 300
326 339 342 342 343 345 348 348 347 351 352 351 350 346 345 341 338 340 339 337 335 332 315 299 297 298 300 305 303 298 297 296 297
Wind_Speed
20 22 21 22 23 22 21 22 20 20 19 19 19 18 17 14 15 12 11 11 8 9 8 8 12 11 9 7 8 6 4 5 5
14 22 22 25 24 23 22 21 21 21 18 19 19 19 15 15 15 15 13 12 12 9 7 6 10 12 11 10 8 6 5 6 5
14 15 21 23 23 24 22 23 20 20 19 19 18 18 17 16 16 15 13 12 11 11 8 8 12 12 12 10 10 9 6 6 7
17 18 19 20 22 23 23 22 22 22 21 20 19 18 18 17 16 17 15 13 13 11 9 10 9 11 11 11 11 7 7 8 7
20 16 17 20 21 23 23 22 23 23 23 23 21 19 18 18 17 17 17 16 15 14 13 12 12 13 12 12 15 18 14 11 6
14 9 3 7 18 20 21 22 21 21 22 24 23 20 20 18 18 18 18 18 16 15 15 15 16 15 15 17 14 11 12 11 11
12 8 8 10 13 18 20 21 22 20 21 23 22 22 20 18 19 18 17 16 17 17 17 17 17 18 18 16 13 12 13 13 12
16 17 11 12 15 16 17 18 19 20 18 19 19 19 19 18 17 16 15 16 16 15 17 16 17 18 17 16 14 12 13 13 12
20 15 14 13 14 16 16 19 18 18 19 17 17 17 17 16 16 16 16 14 15 15 15 15 16 16 16 17 12 9 9 11 11
19 19 19 16 14 17 15 18 16 17 17 16 16 14 16 15 16 17 16 15 15 15 15 15 15 16 15 14 12 7 9 10 10
22 22 21 20 13 16 18 20 20 16 18 15 15 15 14 15 14 15 14 14 14 14 14 16 14 15 14 12 9 7 12 12 13
21 21 20 19 15 17 17 19 18 17 16 17 16 16 14 14 15 15 15 16 17 15 15 14 13 14 14 13 11 11 10 11 11
23 14 12 15 12 15 19 17 20 18 17 18 17 16 15 14 14 14 15 15 13 11 11 14 12 11 14 14 12 9 13 13 10
14 11 14 10 11 15 14 15 16 16 16 17 16 16 15 14 13 12 12 11 11 13 10 9 10 9 11 12 10 9 15 15 11
6 10 12 14 14 13 14 14 15 14 13 13 13 13 14 13 12 10 9 12 10 8 7 9 9 9 10 8 7 7 7 11 13
6 11 12 12 14 15 12 15 14 14 12 12 12 12 11 12 10 8 7 8 8 7 8 8 9 8 6 6 5 6 10 7 5
9 10 12 13 16 17 13 13 14 14 12 12 12 13 10 7 10 10 10 6 6 6 7 8 6 5 6 6 6 6 6 6 4
10 9 12 13 14 16 14 14 15 13 12 13 13 13 12 11 9 7 8 7 4 5 5 3 3 3 3 3 4 5 7 5 6
10 11 10 12 14 15 15 13 13 13 13 13 13 13 11 9 9 9 10 10 8 14 11 6 9 4 3 7 10 13 14 11 9
11 12 11 10 12 14 14 12 13 11 11 11 11 11 13 10 10 10 9 7 7 7 7 12 12 11 12 13 12 12 12 10 10
Wind_Direction
192 189 201 205 201 202 198 197 196 198 188 187 193 198 200 196 204 210 210 206 231 207 222 185 143 180 184 210 181 206 170 219 238
214 184 198 204 201 201 200 194 195 193 194 189 193 196 196 197 196 212 210 214 196 227 217 178 164 174 189 188 192 188 184 245 215
233 223 195 205 202 197 197 193 193 192 193 191 195 197 195 197 197 198 217 205 203 212 197 223 162 178 186 181 182 172 183 252 220
221 206 194 203 202 201 195 196 193 192 193 196 195 200 198 199 197 198 200 213 200 201 207 184 181 185 186 180 161 179 180 223 288
206 211 208 191 204 199 196 198 199 194 197 198 199 201 199 197 195 197 199 206 202 190 199 190 193 184 189 176 190 186 173 188 222
255 239 269 236 188 199 198 191 199 198 195 199 199 199 198 198 197 198 199 198 200 191 195 185 189 185 191 196 196 197 175 173 194
238 214 183 245 235 202 198 193 190 199 194 200 198 195 201 197 197 200 200 197 200 192 194 190 192 188 194 197 193 212 183 173 199
238 237 213 208 235 222 193 193 188 194 201 195 199 195 195 196 192 196 198 201 198 199 192 199 198 192 195 195 201 212 194 182 196
234 243 251 206 223 231 196 194 194 188 198 196 198 190 195 188 184 190 197 197 206 194 196 206 204 205 198 194 211 198 205 192 199
248 250 257 252 211 219 201 191 188 195 193 195 189 198 187 187 182 185 189 193 196 200 203 199 205 210 207 208 216 171 193 199 217
237 248 259 262 200 211 200 196 188 188 187 189 185 188 192 182 182 180 184 191 196 190 202 206 198 210 211 212 214 193 212 196 219
243 235 243 235 198 205 197 191 175 174 178 182 182 182 189 181 182 186 186 195 194 197 203 205 215 191 215 219 220 203 209 191 218
234 241 259 262 213 195 183 186 172 172 181 176 179 177 179 178 183 189 193 198 198 195 202 208 210 214 215 225 233 192 185 196 225
237 223 233 221 201 184 167 182 166 170 178 176 172 169 170 172 183 186 189 183 191 189 201 201 208 203 221 229 225 223 178 197 227
207 215 208 191 176 160 166 153 144 160 164 157 156 157 160 164 167 183 176 185 186 168 177 196 214 197 220 221 238 248 165 189 216
149 170 179 158 137 133 149 137 146 152 149 146 142 149 141 153 154 168 144 169 140 153 189 205 211 207 211 229 218 172 131 163 203
100 122 125 128 134 123 138 125 116 121 132 131 141 122 116 119 127 136 138 144 152 168 193 202 214 211 220 223 204 158 151 175 199
102 112 122 127 125 116 112 110 115 121 132 132 134 132 136 136 134 126 104 69 35 131 65 346 217 168 248 221 153 151 145 178 189
91 94 107 106 99 100 103 104 110 120 125 130 130 136 140 134 138 153 147 141 119 55 68 57 57 67 95 76 90 104 108 110 97
69 61 53 74 95 99 105 110 111 113 121 137 156 153 133 146 156 165 166 158 153 152 92 71 58 57 69 87 126 117 110 105 93